User: anonymous   Login
Location: Albany
(35.0000°S, 118.0000°E)
Time: 23:30:10
(UTC-04:00)
Language:

Radarsat Rocket - Orbit

View from above orbital plane
View from above orbital plane
View from above satellite
View from above satellite

Ground track
Ground track

The orbit data is extracted from the following two-line orbital elements,

1 23711U 95059B   15241.51765485 -.00000046  00000-0 -14820-5 0  9998
2 23711 100.4955 225.8425 0368293 007.2222 147.8523 13.12673401949509
Epoch (UTC): 29 August 2015 12:25:25
Eccentricity: 0.0368293
inclination: 100.4955°
perigee height: 933 km
apogee height: 1492 km
right ascension of ascending node: 225.8425°
argument of perigee: 7.2222°
revolutions per day: 13.12673401
mean anomaly at epoch: 147.8523°
orbit number at epoch: 94950

The dashed part of the orbit path shows where the satellite is in the earth's shadow,  

DLR